Theta_e
315 314 319 324 319 318 322 323 321 323 332 331 332 336 327 330 332 327 324 355 359 351 352 344 345 345 345 342 338 333 328 328 329 333 334 335 338 335 332 334 337 337 331 325 323 326 332 332 334
315 321 323 315 318 320 320 320 320 321 326 323 323 323 324 325 322 322 322 358 358 351 352 345 345 345 345 344 338 333 331 329 329 331 331 326 332 333 332 334 338 338 328 324 323 330 335 338 339
319 322 316 314 315 321 320 321 320 320 320 321 326 325 324 324 323 322 325 355 360 354 353 348 345 345 345 344 340 334 331 331 329 330 331 326 326 328 332 337 340 339 331 323 323 328 335 338 340
322 316 312 318 322 320 320 320 321 320 320 322 323 322 320 320 322 320 327 356 361 356 354 349 347 346 345 345 343 336 332 332 331 329 330 330 326 327 333 337 340 340 336 334 323 325 334 337 339
322 312 316 316 319 321 320 319 319 319 318 320 319 318 317 318 320 320 320 353 362 358 356 349 347 347 345 345 344 341 336 333 333 331 329 330 330 327 331 336 339 340 338 336 331 323 328 336 339
314 311 313 316 318 322 321 319 317 317 318 318 317 316 316 316 319 319 323 334 356 362 358 350 347 348 347 345 344 343 342 336 334 334 331 330 331 331 330 334 338 339 339 337 335 325 324 332 335
316 314 318 319 323 323 323 318 316 315 317 319 317 317 316 315 318 318 337 346 361 361 358 353 348 347 346 346 344 343 342 342 338 336 334 331 331 333 334 332 336 339 338 337 337 331 323 323 327
313 313 317 317 319 322 318 315 313 315 317 318 317 315 315 315 318 317 330 359 356 361 359 358 355 353 351 349 347 345 344 342 342 340 338 335 331 331 334 337 336 338 339 337 338 337 327 323 324
314 312 314 319 317 316 313 314 315 316 316 315 314 314 315 316 317 317 318 325 342 338 344 359 358 357 356 355 353 350 348 347 343 343 342 343 339 335 333 336 339 338 339 339 338 339 335 325 323
312 310 315 315 314 314 314 314 316 315 315 315 314 314 315 316 316 316 314 314 318 322 325 338 352 356 356 347 355 353 351 350 347 344 345 343 342 337 335 336 340 340 340 340 339 340 337 329 324
313 313 314 315 313 314 314 315 315 315 315 314 313 313 314 315 315 314 315 316 317 320 321 321 320 321 322 327 344 355 355 352 351 351 347 345 344 340 338 336 338 344 347 349 346 344 342 332 325
314 313 314 314 314 314 315 314 315 314 314 313 312 313 314 314 312 313 316 317 318 321 320 319 323 322 322 322 323 326 333 353 355 352 351 350 349 345 339 336 336 340 345 348 347 346 343 338 328
314 314 315 314 311 312 313 314 314 313 313 312 312 314 313 312 316 318 319 319 320 322 321 322 322 322 323 323 325 326 326 328 334 349 354 353 350 348 344 338 337 337 341 345 344 346 345 341 333
313 314 313 312 313 313 313 314 315 313 313 313 314 314 312 314 317 319 320 321 321 321 320 320 320 320 320 320 321 322 324 325 326 329 329 342 351 351 348 342 343 344 343 343 342 342 343 343 337
313 314 310 311 312 312 312 314 314 313 313 314 314 313 315 316 319 319 320 320 320 319 319 320 320 319 319 319 318 318 319 320 324 326 328 329 336 349 349 346 345 346 346 347 346 345 344 343 340
313 311 311 310 310 311 312 311 313 312 312 314 314 315 317 317 318 319 320 319 319 319 319 318 318 318 318 318 318 319 321 324 328 328 328 329 332 326 330 344 347 346 348 348 348 348 347 345 341
310 309 310 311 310 313 312 312 313 313 313 314 314 315 318 316 316 318 318 318 318 318 318 317 317 317 317 318 318 320 322 321 319 321 323 323 325 335 336 331 339 349 347 348 348 348 347 345 343
312 311 313 316 315 314 313 312 312 312 313 313 314 315 317 316 315 318 318 318 318 317 317 317 317 316 316 316 317 322 320 317 320 320 320 328 330 332 340 338 334 344 347 348 348 348 347 345 343
314 314 313 313 314 316 312 312 312 313 314 315 314 314 315 315 315 318 318 318 318 318 318 317 317 317 316 316 317 318 319 320 318 319 320 322 322 323 332 338 340 337 341 346 347 347 346 344 344
314 314 313 313 315 317 315 314 313 314 314 314 313 315 315 315 314 315 318 318 318 317 317 316 316 316 315 317 319 318 317 317 315 314 315 320 319 321 320 320 324 338 341 345 345 345 346 344 344
315 314 314 314 316 315 315 315 314 315 315 314 314 315 316 316 314 314 316 318 317 316 316 315 314 314 313 316 315 316 315 314 314 314 316 318 321 320 319 319 319 319 332 339 341 344 345 345 344
315 313 315 316 315 316 314 315 314 314 314 315 314 315 315 314 314 314 315 316 316 315 314 313 313 312 312 311 311 313 315 315 315 314 314 318 319 319 319 319 319 319 324 332 335 338 345 345 344
313 315 314 315 314 314 314 313 312 315 317 315 315 316 314 313 313 313 313 315 314 313 312 312 311 311 311 310 310 310 311 311 313 314 316 316 317 319 317 317 319 319 323 332 332 333 337 345 345
315 314 314 314 311 314 313 313 315 318 319 316 316 315 314 313 313 312 315 315 313 312 312 311 311 310 310 310 309 309 309 310 312 312 313 315 317 317 317 318 319 320 323 331 334 333 334 339 345
312 312 314 321 320 318 319 317 316 319 320 316 317 315 314 313 313 313 313 312 311 311 311 310 310 309 308 308 308 307 307 308 309 310 313 315 317 318 318 317 318 320 321 328 336 333 330 337 344
311 312 317 326 324 325 320 323 319 320 317 317 316 315 314 313 312 312 312 310 311 310 309 309 309 308 307 307 307 307 307 307 308 310 309 311 314 316 318 319 320 321 322 324 333 336 337 340 341
314 314 314 319 320 319 319 319 323 321 319 318 317 316 316 314 313 312 309 310 309 309 309 308 308 307 307 307 306 306 306 307 307 308 308 308 310 312 315 318 320 321 324 325 331 336 335 340 342
315 317 322 317 324 323 320 318 321 323 321 320 319 317 315 314 312 311 308 308 309 308 308 308 308 307 307 306 305 305 305 306 306 306 307 307 309 311 313 318 319 320 325 325 331 335 338 339 341
314 314 317 319 318 323 320 319 320 320 320 319 316 315 313 313 311 309 307 308 308 308 308 308 307 307 306 306 305 305 305 305 306 306 306 307 307 309 311 314 317 319 325 327 333 336 339 342 341
314 313 315 318 320 318 318 318 318 318 317 316 316 316 315 312 309 307 307 308 308 308 308 308 307 307 306 305 305 304 305 305 305 305 306 306 306 307 310 312 316 319 325 326 334 338 341 338 340
Wind_Speed
14 11 9 3 4 5 2 3 2 6 4 4 4 6 6 5 4 5 2 5 10 22 21 19 18 15 15 15 16 16 16 15 15 16 16 17 19 23 24 22 19 17 17 17 17 16 14 14 13
12 7 3 2 5 4 3 4 9 6 7 17 18 10 8 7 3 4 5 8 11 21 20 20 18 17 14 13 13 15 15 14 15 17 17 17 19 22 22 21 18 16 16 16 16 15 14 12 11
10 4 3 4 3 4 4 3 5 4 11 8 5 6 4 1 5 3 10 14 14 18 20 22 18 17 15 13 11 12 13 14 14 16 17 17 19 21 20 18 16 15 15 14 15 14 13 11 9
6 5 4 4 2 3 5 4 2 6 10 6 14 7 5 9 3 10 11 11 16 19 19 20 19 17 15 14 12 11 12 12 13 14 16 17 18 20 20 17 16 14 14 13 14 14 13 11 9
2 3 4 4 4 0 2 4 2 6 7 8 8 6 6 12 19 22 18 10 14 19 16 19 18 17 16 15 12 10 10 11 12 13 15 16 17 18 20 18 16 14 14 12 12 13 13 11 9
3 3 5 1 3 0 3 1 6 6 4 6 8 6 3 9 20 26 20 8 11 18 17 17 16 15 14 15 14 13 11 11 12 13 14 16 17 17 19 19 17 15 14 13 12 13 14 13 10
5 4 3 3 4 3 1 1 6 5 5 4 8 6 1 8 18 27 26 16 11 14 15 14 13 11 10 10 11 12 13 11 11 12 13 16 17 18 18 19 19 17 15 13 12 12 14 14 12
4 4 3 1 5 4 4 4 5 6 2 1 4 4 2 3 17 28 31 25 16 8 8 8 8 7 7 9 10 11 11 11 12 13 14 16 18 20 20 20 19 19 17 15 14 13 14 14 14
4 4 0 1 4 2 3 5 3 2 4 6 5 7 7 12 16 23 30 30 28 24 9 2 2 3 5 6 7 9 10 11 11 13 15 16 18 20 21 22 21 21 20 18 17 16 15 15 15
5 4 5 3 6 2 2 5 3 3 4 4 5 5 12 14 17 17 20 20 25 23 27 17 7 8 7 7 6 6 9 11 13 14 17 18 19 21 22 23 22 21 21 20 19 18 17 17 17
4 5 5 2 6 4 2 3 1 3 0 4 7 5 6 9 9 11 13 22 23 24 22 18 17 16 15 16 12 4 8 11 13 16 17 20 21 21 23 24 24 23 21 21 22 21 21 20 20
5 5 5 6 5 4 3 4 2 2 5 10 10 8 6 6 8 13 20 22 22 24 21 18 17 17 16 15 15 12 11 10 14 17 19 21 24 25 25 26 27 29 28 28 27 26 24 23 22
4 0 1 5 8 8 8 5 5 5 5 7 9 8 8 11 15 18 20 19 20 21 19 18 14 14 15 14 15 15 14 13 10 13 18 22 26 29 29 29 29 31 33 32 31 30 27 26 25
3 3 1 3 3 2 7 3 4 5 6 8 9 8 9 12 12 15 17 16 18 17 19 19 21 21 21 21 21 20 18 17 17 16 16 13 25 32 32 34 34 33 34 35 35 34 32 30 27
2 4 5 5 4 5 6 3 7 8 7 9 9 8 10 10 17 16 15 15 13 14 14 17 21 24 27 27 25 24 23 22 20 20 19 22 21 20 29 34 35 38 37 35 35 35 34 33 31
4 4 2 8 6 5 8 7 8 7 11 10 10 11 11 7 14 17 17 13 10 8 11 14 15 18 23 26 28 27 24 21 21 21 20 20 22 24 30 21 30 37 37 37 37 36 35 35 34
4 3 6 9 5 5 5 7 8 9 9 9 7 10 11 8 9 18 15 11 6 6 10 12 15 17 17 19 23 25 23 22 25 25 25 28 28 25 27 28 32 31 36 37 38 37 35 31 33
5 4 3 2 1 3 4 6 7 8 7 9 9 9 11 10 9 18 15 10 5 2 5 9 11 16 19 21 22 19 22 28 26 27 28 22 21 26 26 26 28 28 33 35 35 35 36 31 32
4 1 2 4 5 2 6 7 9 10 6 6 7 9 10 10 10 20 17 12 6 1 3 6 11 15 19 22 24 23 20 21 27 29 26 25 28 28 20 24 30 32 28 37 38 38 33 31 32
4 2 4 6 3 2 5 11 9 9 7 9 10 13 12 8 8 12 18 13 9 4 2 4 7 10 14 17 19 18 22 23 25 28 31 26 27 27 27 30 29 30 32 34 33 36 33 31 34
4 4 4 7 3 3 5 10 6 5 4 6 7 17 14 16 12 9 12 14 8 3 2 3 8 11 14 13 19 25 26 28 27 26 26 28 28 31 32 30 35 37 30 30 35 32 37 29 30
4 4 1 4 4 3 4 6 6 8 14 8 9 14 15 10 8 7 10 10 8 7 2 2 7 11 15 18 19 20 27 25 28 31 30 30 31 34 34 36 35 37 32 32 33 43 39 36 28
6 6 4 2 1 2 3 2 8 5 7 10 8 12 9 9 9 9 9 11 8 5 1 3 7 11 13 17 20 23 25 28 30 30 29 32 33 35 37 37 38 38 34 32 45 44 39 41 36
4 5 7 5 3 2 6 8 6 3 5 3 5 9 11 9 8 8 11 8 5 3 2 2 6 9 13 15 18 21 26 27 26 28 31 29 30 34 38 38 39 35 35 34 40 44 50 37 38
6 6 3 4 2 6 3 4 9 11 8 9 14 13 9 8 9 7 6 4 7 4 2 2 6 9 13 17 21 26 28 28 28 27 25 28 29 30 35 38 40 36 35 39 39 41 36 41 40
7 9 6 7 3 4 6 6 5 6 5 14 13 9 7 8 6 7 6 11 8 5 1 4 7 12 18 24 26 27 28 27 26 25 30 28 28 29 34 36 37 38 39 42 42 42 37 37 41
4 5 8 3 1 1 4 5 4 2 6 7 8 8 8 7 8 8 7 9 8 4 3 6 11 17 20 23 26 26 27 28 29 29 30 31 33 33 35 36 38 41 39 42 46 42 46 32 40
5 5 4 2 3 5 5 5 5 5 4 4 6 8 9 7 7 5 7 10 6 4 6 10 13 14 18 26 26 26 28 28 30 31 32 33 36 35 37 36 37 39 43 44 47 41 44 37 40
2 2 3 4 5 5 1 6 4 7 9 9 8 9 8 8 7 6 6 6 4 4 7 9 10 14 22 24 27 26 26 30 31 31 32 33 35 36 36 37 37 42 43 41 44 44 38 47 51
8 9 7 5 5 4 4 6 4 8 8 6 7 6 3 7 6 5 5 2 3 7 8 9 13 20 22 24 27 26 28 29 31 32 32 32 38 38 35 36 38 44 44 42 47 44 37 42 39
Wind_Direction
321 322 312 45 54 67 317 70 294 83 43 263 116 125 130 78 104 157 71 204 156 166 168 168 167 159 152 147 143 138 136 142 144 146 148 152 155 156 153 149 146 144 141 139 139 139 137 136 137
327 16 67 75 85 71 291 286 96 92 104 94 96 106 66 68 46 108 65 184 169 166 172 173 172 164 159 155 151 146 141 143 149 153 153 154 157 159 157 154 150 148 145 143 144 147 146 142 138
332 340 83 93 111 162 170 215 173 113 151 163 102 58 58 70 8 47 29 175 170 169 179 176 175 169 165 162 160 156 151 149 153 160 161 160 162 163 162 159 154 155 153 150 153 157 158 155 155
354 14 27 85 203 243 185 154 180 98 43 71 120 59 68 20 51 20 38 153 172 174 178 181 175 175 170 169 168 168 164 163 162 167 171 170 171 170 170 170 165 165 165 163 163 168 172 170 177
49 58 55 84 245 302 10 78 67 86 106 77 88 129 73 12 20 27 43 164 174 176 177 182 179 179 177 176 176 179 182 182 178 177 180 184 182 181 180 181 179 175 177 177 176 179 185 187 191
23 99 55 52 254 341 59 129 84 70 87 104 83 86 57 9 31 27 43 118 191 177 174 176 183 186 186 188 189 189 196 200 198 193 192 194 195 194 192 192 192 190 190 190 192 189 195 201 209
120 82 194 197 160 40 56 128 73 96 71 27 147 96 151 356 30 45 51 83 153 175 171 174 181 192 200 210 213 207 199 210 215 213 207 206 205 204 204 204 203 204 205 207 208 208 203 207 214
115 93 14 244 202 73 339 58 156 81 50 139 63 127 123 287 40 62 65 73 72 113 161 166 176 195 214 230 230 227 223 213 217 224 227 223 216 214 212 213 213 215 214 214 219 222 223 215 216
100 60 246 241 91 150 284 97 0 22 80 44 89 120 155 78 59 61 75 79 78 68 53 211 109 47 19 338 271 242 241 236 227 224 229 234 229 223 220 220 220 222 222 220 221 228 233 232 228
97 110 220 195 149 123 55 85 135 75 105 66 94 92 94 78 69 54 76 79 75 73 68 75 57 45 63 10 329 272 251 251 242 232 226 228 234 234 230 229 227 228 228 227 227 228 234 238 237
154 179 184 205 133 120 66 68 358 122 29 184 153 133 88 77 80 90 65 90 84 80 77 74 72 69 65 50 37 343 278 268 262 257 240 234 231 232 235 235 231 229 229 230 230 229 230 234 240
159 198 163 186 151 117 137 148 336 143 243 167 154 148 123 92 63 76 75 68 75 71 66 63 69 62 50 47 51 38 25 316 286 273 260 249 240 233 232 235 237 233 230 231 232 232 232 233 237
149 175 198 173 164 169 136 171 203 271 152 187 139 113 111 98 104 91 82 65 55 52 49 50 39 31 24 24 21 19 11 5 353 295 278 265 255 247 240 234 235 237 236 233 235 236 236 236 236
316 146 270 268 199 209 147 223 134 250 135 153 128 149 116 129 126 102 81 72 62 42 24 5 5 2 356 350 348 345 345 340 333 328 317 288 269 261 251 243 237 236 238 240 241 239 239 239 239
340 358 351 258 228 209 131 297 221 238 184 169 169 129 128 131 120 112 105 88 68 50 20 359 345 337 338 342 343 341 335 329 329 324 319 316 272 273 250 243 238 237 239 239 242 243 243 242 242
5 53 35 277 170 229 122 250 252 274 154 185 189 147 139 148 130 121 111 99 74 39 3 346 338 332 329 331 332 334 335 336 337 336 329 323 307 289 274 276 243 239 234 234 237 238 237 239 238
349 230 206 308 223 138 157 235 242 182 175 212 203 157 143 139 133 129 124 117 85 18 341 322 319 323 326 327 324 322 325 327 323 321 320 319 317 307 292 290 281 249 232 228 229 231 229 228 230
213 223 221 253 50 119 217 250 274 243 200 206 190 171 156 155 166 148 136 119 96 14 309 306 314 321 322 322 317 307 312 318 320 321 323 327 325 317 310 286 275 270 241 223 220 221 226 221 224
237 198 259 250 263 223 214 248 255 261 250 227 183 183 171 165 177 150 140 133 139 151 313 315 322 331 321 315 308 309 316 317 314 317 317 306 304 304 313 300 292 268 267 236 220 217 216 217 219
192 218 260 292 230 170 289 283 240 215 219 207 198 182 177 166 160 155 148 144 128 111 16 339 346 340 336 326 307 312 313 312 311 314 310 300 299 297 303 304 298 283 271 271 247 214 215 216 207
219 194 222 231 319 354 335 287 271 268 232 227 212 188 179 170 161 163 145 138 131 112 50 7 337 336 340 336 322 313 310 311 310 308 300 297 293 301 304 304 301 299 277 261 264 232 212 208 207
228 219 93 44 46 233 77 283 273 279 282 254 226 175 169 164 155 140 135 126 118 113 141 287 307 319 323 323 324 317 310 300 299 301 301 292 293 295 299 301 302 302 283 260 264 264 224 211 196
226 115 111 113 48 346 188 295 274 264 273 251 200 164 155 154 141 134 132 130 145 141 20 310 322 327 325 317 318 319 312 310 305 296 294 294 290 293 298 297 297 302 289 262 252 249 261 220 209
125 66 35 50 101 303 226 179 271 215 215 206 140 142 142 149 127 126 127 132 140 151 161 305 327 328 325 325 321 319 316 315 308 303 297 293 286 289 295 296 294 294 289 268 248 247 239 263 217
85 65 349 328 349 232 275 170 242 304 303 177 158 143 154 132 134 138 137 150 164 155 181 360 343 336 330 326 323 318 311 307 303 297 297 297 290 286 287 295 290 282 290 278 246 243 229 241 224
178 149 157 228 217 269 300 247 279 332 35 92 110 135 128 135 149 168 165 159 164 171 172 350 346 335 331 327 325 319 310 303 297 297 299 294 293 290 288 285 281 287 286 282 254 238 233 219 218
183 157 177 100 298 20 247 295 319 324 66 91 121 135 168 165 179 176 145 160 163 151 19 358 341 332 328 326 317 312 308 303 299 298 297 294 292 288 289 286 288 294 281 283 259 234 223 217 203
142 166 81 7 216 248 277 256 227 196 180 160 170 189 209 196 167 151 158 156 136 55 6 339 331 316 321 320 314 309 307 305 299 296 293 294 293 290 291 287 288 293 274 279 255 231 210 196 208
143 177 90 129 149 182 244 267 224 195 179 181 204 218 202 184 182 157 134 95 65 350 329 319 312 317 321 315 313 305 298 297 293 292 290 291 293 290 288 288 287 290 273 279 241 221 207 183 203
180 182 150 140 231 221 166 260 258 180 186 180 234 269 226 155 146 124 120 112 335 330 312 320 324 324 319 312 304 300 299 295 292 291 291 294 292 290 287 287 286 285 273 286 235 215 207 194 198